This is the latest recevied weather packets stored in our database for station/object KD4UFD. If no packets are shown the sender has not sent any weather packets the latest 10 day(s).
| Time | Temp. | Humidity | Pressure | Rain* | Wind** | Luminosity | Snow |
|---|---|---|---|---|---|---|---|
| 1778174460 | 16.11° C | 73% | 1014 hPa | 0 mm | - | 1025 W/m² | - |
| 1778174155 | 16.11° C | 72% | 1014 hPa | 0 mm | - | 396 W/m² | - |
| 1778173852 | 16.11° C | 75% | 1013.8 hPa | 0 mm | - | 539 W/m² | - |
| 1778173549 | 15.56° C | 75% | 1013.9 hPa | 0 mm | - | 383 W/m² | - |
| 1778173246 | 15.56° C | 74% | 1013.9 hPa | 0 mm | - | 406 W/m² | - |
| 1778172942 | 15° C | 75% | 1014 hPa | 0 mm | - | 437 W/m² | - |
| 1778172639 | 15.56° C | 74% | 1014.1 hPa | 0 mm | - | 385 W/m² | - |
| 1778172334 | 15° C | 77% | 1014.3 hPa | 0 mm | - | 414 W/m² | - |
| 1778172032 | 15° C | 79% | 1014.1 hPa | 0 mm | - | 351 W/m² | - |
| 1778171729 | 14.44° C | 80% | 1014.4 hPa | 0 mm | - | 308 W/m² | - |
| 1778171427 | 14.44° C | 81% | 1014 hPa | 0 mm | - | 309 W/m² | - |
| 1778171121 | 14.44° C | 81% | 1014.2 hPa | 0 mm | - | 304 W/m² | - |
| 1778170818 | 14.44° C | 81% | 1014.1 hPa | 0 mm | - | 311 W/m² | - |
| 1778170515 | 14.44° C | 83% | 1014.1 hPa | 0 mm | - | 294 W/m² | - |
| 1778170212 | 13.89° C | 84% | 1013.9 hPa | 0 mm | - | 326 W/m² | - |
| 1778169907 | 13.89° C | 85% | 1014 hPa | 0 mm | - | 321 W/m² | - |
| 1778169604 | 13.33° C | 86% | 1013.6 hPa | 0 mm | - | 396 W/m² | - |
| 1778169299 | 13.33° C | 88% | 1013.7 hPa | 0 mm | - | 273 W/m² | - |
| 1778168997 | 13.89° C | 90% | 1013.7 hPa | 0 mm | - | 278 W/m² | - |
| 1778168693 | 13.33° C | 90% | 1013.8 hPa | 0 mm | - | 204 W/m² | - |
| 1778168390 | 12.78° C | 91% | 1013.8 hPa | 0 mm | - | 203 W/m² | - |
| 1778168087 | 13.33° C | 92% | 1013.7 hPa | 0 mm | - | 229 W/m² | - |
| 1778167784 | 12.78° C | 91% | 1013.8 hPa | 0 mm | - | 228 W/m² | - |
| 1778167479 | 12.78° C | 92% | 1013.6 hPa | 0 mm | - | 183 W/m² | - |
| 1778167176 | 12.78° C | 91% | 1014 hPa | 0 mm | - | 138 W/m² | - |
* Rain latest hour (hover to see other rain measurements)
** Current wind speed in m/s (hover to see current wind gust speed)